Regional Weather Roundup
Issued by NWS

Home | Current Version | Previous Version | Graphics & Text | Print | Product List | Glossary On
Versions: 1 2 3 4 5 6 7 8 9 10 11 12 13 14 15 16 17 18 19 20 21 22 23 24 25 26 27 28 29 30 31 32 33 34 35 36 37 38 39 40 41 42 43 44 45 46 47 48 49 50
000
ASUS45 KTFX 181810
RWRMT
MONTANA REGIONAL WEATHER ROUNDUP
NATIONAL WEATHER SERVICE GREAT FALLS MT
1200 PM MDT WED APR 18 2018

NOTE: "FAIR" INDICATES FEW OR NO CLOUDS BELOW 12000 FEET WITH NO
SIGNIFICANT WEATHER AND/OR OBSTRUCTIONS TO VISIBILITY.

MTZ001>007-043-181900-
WEST OF THE DIVIDE

CITY           SKY/WX    TMP DP  RH WIND       PRES   REMARKS
KALISPELL      FAIR      47  26  44 S9        30.22F
MISSOULA       FAIR      46  25  43 NE6       30.23F
BUTTE          FAIR      40  16  37 VRB7      30.19F
MULLAN PASS    FAIR      31  26  82 CALM      30.16S
ANACONDA         N/A     45   9  23 MISG      30.18F
DEER LODGE       N/A     45  16  31 S3        30.21F
HAMILTON         N/A     46  21  36 MISG      30.20F
RONAN            N/A     46  21  36 W8        30.24F
$$

MTZ008-052>055-181900-
SOUTHWEST MONTANA

CITY           SKY/WX    TMP DP  RH WIND       PRES   REMARKS
BOZEMAN        FAIR      43  21  41 NW3       30.22F
DILLON         FAIR      39  21  48 CALM      30.20F
ENNIS          MOSUNNY   43  19  39 S9G16     30.24S
W YELLOWSTONE  FAIR      34  12  40 SW12      30.20F WCI  25
THREE FORKS      N/A     46  24  42 NE2       30.18F
TWIN BRIDGES     N/A     42  19  40 S9        30.18
$$

MTZ009-010-012-014-046-048-049-054-181900-
EAST SLOPES AND CENTRAL MONTANA

CITY           SKY/WX    TMP DP  RH WIND       PRES   REMARKS
CUT BANK       FAIR      46  20  35 SW13G21   30.17S
GREAT FALLS    FAIR      46  17  31 SW7G18    30.20S
HELENA         FAIR      45  19  35 CALM      30.20F
AUGUSTA        FAIR      40  13  33 W6        30.17S
CHOTEAU          N/A     46  12  25 SE3G12    30.18S
FAIRFIELD      FAIR      44  14  29 S10       30.17S
ULM            FAIR      45  17  32 W9        30.20S
$$

MTZ011-013-016-021-045-047-050-051-181900-
NORTH CENTRAL MONTANA

CITY           SKY/WX    TMP DP  RH WIND       PRES   REMARKS
HAVRE          FAIR      49  28  44 W9        30.22R
LEWISTOWN      FAIR      43  16  33 VRB5      30.21S
N BAR RANCH    PTSUNNY   43  14  31 VRB5      30.22S
CHINOOK          N/A     48  28  46 W6        30.22S
GEYSER         FAIR      46  17  31 W16       30.19F
GRASS RANGE    FAIR      46  17  31 W10       30.18S
STANFORD       FAIR      44  12  27 N5        30.19F
$$

MTZ017>020-022>027-061-062-181900-
NORTHEAST MONTANA

CITY           SKY/WX    TMP DP  RH WIND       PRES   REMARKS
GLASGOW        FAIR      49  34  56 CALM      30.21S
GLENDIVE       FAIR      51  36  56 NW15      30.19R
JORDAN           N/A     51  32  48 NW9       30.21R
MALTA          SUNNY     46  34  61 VRB3      30.21S
SIDNEY         PTSUNNY   45  37  73 N8        30.20R
WOLF POINT     FAIR      48  37  65 VRB7      30.22R
PLENTYWOOD       N/A     37  37 100 MISG      30.19R
POPLAR           N/A     46  34  61 N7        30.21S
SCOBEY           N/A     38  32  79 NW9       30.17  WCI  31
$$

MTZ028>42-056>058-181900-
SOUTHCENTRAL AND SOUTHEAST MONTANA

CITY           SKY/WX    TMP DP  RH WIND       PRES   REMARKS
BAKER          FAIR      50  34  54 NW18G24   30.17R
BILLINGS       FAIR      52  19  27 NW13      30.22F
LIVINGSTON     FAIR      45  20  36 MISG      30.20F
MILES CITY     FAIR      51  34  52 NW18      30.21R
BIG TIMBER     SUNNY     46  18  31 W15G22    30.22F
EKALAKA          N/A     49  30  48 W16       30.15
FORSYTH          N/A     50  27  40 MISG      30.23S
HARLOWTON      FAIR      46  15  28 W20G26    30.21S
LAUREL           N/A     50  19  29 W10G16    30.23F
$$

REGIONAL REPORTS...DAKOTAS

CITY           SKY/WX    TMP DP  RH WIND       PRES   REMARKS
WILLISTON      CLOUDY    42  35  76 CALM      30.20S
MINOT          FAIR      41  34  76 CALM      30.19R
DICKINSON      FAIR      45  35  68 W6        30.15R
BEACH          FAIR      50  32  50 N15       30.20R
CROSBY         CLOUDY    34  34 100 NW5       30.21R FOG
TIOGA          PTSUNNY   37  37 100 W6        30.20R
WATFORD CITY   CLOUDY    39  37  93 CALM      30.19S
BISMARCK       FAIR      48  35  60 N9        30.18R
GRAND FORKS    FAIR      44  27  51 N14       30.16S
FARGO          FAIR      47  31  53 N20G25    30.09S
BUFFALO SD       N/A     53  30  41 NW23G30   30.08F
RAPID CITY     PTSUNNY   51  29  42 N25G36    30.16S
$$

REGIONAL REPORTS...WYOMING/IDAHO/WASHINGTON

CITY           SKY/WX    TMP DP  RH WIND       PRES   REMARKS
GILLETTE       PTSUNNY   45  25  45 NW15      30.23R
SHERIDAN       FAIR      50  25  37 NW13G18   30.25S
BUFFALO WY     FAIR      46  19  34 N12G23    30.25R
CODY           FAIR      45  14  28 VRB3      30.23S
YELLOWSTONE LA   N/A     31  16  54 VRB6      30.24F WCI  25
IDAHO FALLS    FAIR      44  16  32 VRB3      30.25F
BOISE          FAIR      53  19  26 SE14      30.14F
SPOKANE        PTSUNNY   45  30  55 VRB3      30.23R
$$

REGIONAL REPORTS...ALBERTA

CITY           SKY/WX    TMP DP  RH WIND       PRES   REMARKS
CALGARY        PTSUNNY   45  23  42 E10       30.12R
EDMONTON       SUNNY     43  19  39 W5        30.11R
FORT MCMURRAY  MOSUNNY   37  25  60 W15G23    30.02R WCI  28
HIGH LEVEL     MOSUNNY   39  14  35 W7        29.92R
LETHBRIDGE     MOSUNNY   48  19  32 W13G29    30.15R
LLOYDMINSTER   MOSUNNY   41  28  60 W14       30.12R
MEDICINE HAT   MOSUNNY   50  28  43 SW8       30.18R
PEACE RIVER    PTSUNNY   36  25  64 SW9       30.00R WCI  29
PINCHER CREEK  SUNNY     43  23  45 W18G25    30.14R
$$

REGIONAL REPORTS...SASKATCHEWAN

CITY           SKY/WX    TMP DP  RH WIND       PRES   REMARKS
CORONACH         N/A     39  36  87 NW8         N/A
CYPRESS HILLS    N/A     36  28  75 S8          N/A  WCI  29
ESTEVAN        FOG       36  34  93 NW8       30.20R VSB 1   WCI  29
MOOSE JAW        N/A     34  32  93 W3          N/A
PRINCE ALBERT  SUNNY     41  30  65 SW9       30.16S
REGINA         CLOUDY    34  32  93 N8        30.22R FOG     WCI  27
ROCKGLEN         N/A     37  34  87 N9          N/A  WCI  31
SASKATOON      SUNNY     43  28  56 SW12      30.21R
SWIFT CURRENT  SUNNY     45  25  45 SE6       30.20R
VAL MARIE        N/A     46  28  49 W3          N/A
$$



USA.gov is the U.S. government's official web portal to all federal, state and local government web resources and services.